| time (UTC) | temp C | wind direction | speed KPH | gust KPH | rain 1hr cm | rain 24hr cm | rain mn cm | humidity % | barometer mb |
| 20260510045005 | 12 | 296 | 0.0 | 0.0 | 0.00 | 0.00 | 0.00 | 86 | 1010.5 |
| 20260510044527 | 12 | 296 | 0.0 | 0.0 | 0.00 | 0.00 | 0.00 | 84 | 1010.5 |
| 20260510043510 | 13 | 296 | 0.0 | 0.0 | 0.00 | 0.00 | 0.00 | 83 | 1010.6 |
| 20260510043018 | 13 | 296 | 0.0 | 0.0 | 0.00 | 0.00 | 0.00 | 82 | 1010.6 |
| 20260510042508 | 13 | 296 | 0.0 | 0.0 | 0.00 | 0.00 | 0.00 | 83 | 1010.6 |
| 20260510042008 | 13 | 296 | 0.0 | 0.0 | 0.00 | 0.00 | 0.00 | 82 | 1010.6 |
| 20260510041521 | 13 | 296 | 0.0 | 3.2 | 0.00 | 0.00 | 0.00 | 83 | 1010.5 |
| 20260510041010 | 13 | 296 | 0.0 | 3.2 | 0.00 | 0.00 | 0.00 | 83 | 1010.5 |
| 20260510040514 | 13 | 300 | 0.0 | 0.0 | 0.00 | 0.00 | 0.00 | 82 | 1010.5 |
| 20260510040036 | 13 | 300 | 0.0 | 0.0 | 0.00 | 0.00 | 0.00 | 82 | 1010.5 |
| 20260510035513 | 13 | 317 | 0.0 | 0.0 | 0.00 | 0.00 | 0.00 | 82 | 1010.5 |
| 20260510035007 | 13 | 317 | 0.0 | 3.2 | 0.00 | 0.00 | 0.00 | 82 | 1010.5 |
| 20260510034511 | 13 | 313 | 0.0 | 3.2 | 0.00 | 0.00 | 0.00 | 83 | 1010.5 |
| 20260510034005 | 13 | 294 | 0.0 | 0.0 | 0.00 | 0.00 | 0.00 | 83 | 1010.5 |
| 20260510033506 | 13 | 295 | 0.0 | 0.0 | 0.00 | 0.00 | 0.00 | 83 | 1010.4 |
| 20260510033014 | 13 | 295 | 0.0 | 0.0 | 0.00 | 0.00 | 0.00 | 83 | 1010.4 |
| 20260510032510 | 13 | 295 | 0.0 | 0.0 | 0.00 | 0.00 | 0.00 | 83 | 1010.3 |
| 20260510032013 | 13 | 295 | 0.0 | 0.0 | 0.00 | 0.00 | 0.00 | 84 | 1010.3 |
| 20260510031522 | 13 | 302 | 0.0 | 0.0 | 0.00 | 0.00 | 0.00 | 83 | 1010.3 |
| 20260510031009 | 13 | 302 | 0.0 | 0.0 | 0.00 | 0.00 | 0.00 | 83 | 1010.3 |
| 20260510030515 | 13 | 296 | 0.0 | 0.0 | 0.00 | 0.00 | 0.00 | 82 | 1010.3 |
| 20260510030021 | 13 | 296 | 0.0 | 0.0 | 0.00 | 0.00 | 0.00 | 82 | 1010.3 |
| 20260510025511 | 14 | 296 | 0.0 | 0.0 | 0.00 | 0.00 | 0.00 | 81 | 1010.3 |
| 20260510025008 | 14 | 296 | 0.0 | 0.0 | 0.00 | 0.00 | 0.00 | 81 | 1010.2 |
| 20260510024523 | 14 | 296 | 0.0 | 0.0 | 0.00 | 0.00 | 0.00 | 80 | 1010.2 |
| 20260510024011 | 14 | 296 | 0.0 | 0.0 | 0.00 | 0.00 | 0.00 | 80 | 1010.1 |
| 20260510023506 | 14 | 296 | 0.0 | 0.0 | 0.00 | 0.00 | 0.00 | 80 | 1010.0 |
| 20260510023012 | 14 | 300 | 0.0 | 0.0 | 0.00 | 0.00 | 0.00 | 80 | 1010.1 |
| 20260510022507 | 14 | 300 | 0.0 | 0.0 | 0.00 | 0.00 | 0.00 | 80 | 1010.2 |
| 20260510022008 | 14 | 300 | 0.0 | 0.0 | 0.00 | 0.00 | 0.00 | 79 | 1010.1 |
| 20260510021516 | 15 | 300 | 0.0 | 0.0 | 0.00 | 0.00 | 0.00 | 78 | 1010.0 |
| 20260510021008 | 15 | 300 | 0.0 | 0.0 | 0.00 | 0.00 | 0.00 | 78 | 1009.9 |
| 20260510020508 | 15 | 300 | 0.0 | 0.0 | 0.00 | 0.00 | 0.00 | 78 | 1009.9 |
| 20260510020023 | 15 | 300 | 0.0 | 0.0 | 0.00 | 0.00 | 0.00 | 77 | 1009.8 |
| 20260510015512 | 15 | 300 | 0.0 | 0.0 | 0.00 | 0.00 | 0.00 | 76 | 1009.8 |
| 20260510015014 | 15 | 300 | 0.0 | 0.0 | 0.00 | 0.00 | 0.00 | 76 | 1009.7 |
| 20260510014526 | 15 | 300 | 0.0 | 0.0 | 0.00 | 0.00 | 0.00 | 76 | 1009.8 |
| 20260510014008 | 16 | 305 | 0.0 | 0.0 | 0.00 | 0.00 | 0.00 | 75 | 1009.7 |
| 20260510013509 | 15 | 305 | 0.0 | 0.0 | 0.00 | 0.00 | 0.00 | 76 | 1009.6 |
| 20260510013024 | 15 | 301 | 0.0 | 0.0 | 0.00 | 0.00 | 0.00 | 75 | 1009.6 |
| 20260510012507 | 15 | 301 | 0.0 | 0.0 | 0.00 | 0.00 | 0.00 | 75 | 1009.5 |
| 20260510012006 | 16 | 301 | 0.0 | 0.0 | 0.00 | 0.00 | 0.00 | 74 | 1009.3 |
| 20260510011517 | 16 | 301 | 0.0 | 0.0 | 0.00 | 0.00 | 0.00 | 73 | 1009.2 |
| 20260510010507 | 16 | 301 | 0.0 | 0.0 | 0.00 | 0.00 | 0.00 | 73 | 1009.1 |
| 20260510010022 | 16 | 9 | 0.0 | 0.0 | 0.00 | 0.00 | 0.00 | 72 | 1009.0 |
| 20260510005511 | 17 | 9 | 0.0 | 0.0 | 0.00 | 0.00 | 0.00 | 70 | 1008.9 |
| 20260510005008 | 17 | 9 | 0.0 | 0.0 | 0.00 | 0.00 | 0.00 | 70 | 1008.9 |
| 20260510004523 | 17 | 9 | 0.0 | 0.0 | 0.00 | 0.00 | 0.00 | 69 | 1008.9 |
| 20260510004008 | 17 | 9 | 0.0 | 0.0 | 0.00 | 0.00 | 0.00 | 68 | 1008.8 |
| 20260510003511 | 17 | 9 | 0.0 | 0.0 | 0.00 | 0.00 | 0.00 | 68 | 1008.7 |
| 20260510003024 | 18 | 9 | 0.0 | 0.0 | 0.00 | 0.00 | 0.00 | 67 | 1008.8 |
| 20260510002512 | 18 | 98 | 0.0 | 0.0 | 0.00 | 0.00 | 0.00 | 67 | 1008.8 |
| 20260510002010 | 18 | 327 | 0.0 | 0.0 | 0.00 | 0.00 | 0.00 | 65 | 1008.8 |
| 20260510001526 | 18 | 327 | 0.0 | 0.0 | 0.00 | 0.00 | 0.00 | 65 | 1008.7 |
| 20260510001009 | 19 | 327 | 0.0 | 0.0 | 0.00 | 0.00 | 0.00 | 64 | 1008.7 |
| 20260510000507 | 20 | 327 | 0.0 | 0.0 | 0.00 | 0.00 | 0.00 | 63 | 1008.7 |
| 20260510000019 | 20 | 327 | 0.0 | 0.0 | 0.00 | 0.00 | 0.00 | 62 | 1008.6 |
| 20260509235507 | 20 | 327 | 0.0 | 0.0 | 0.00 | 0.00 | 0.00 | 60 | 1008.6 |
| 20260509235009 | 20 | 327 | 0.0 | 0.0 | 0.00 | 0.00 | 0.00 | 57 | 1008.5 |
| 20260509234529 | 21 | 327 | 0.0 | 0.0 | 0.00 | 0.00 | 0.00 | 54 | 1008.5 |
| 20260509234013 | 22 | 327 | 0.0 | 3.2 | 0.00 | 0.00 | 0.00 | 53 | 1008.5 |
| 20260509233510 | 22 | 329 | 0.0 | 3.2 | 0.00 | 0.00 | 0.00 | 57 | 1008.4 |
| 20260509233025 | 22 | 262 | 0.0 | 0.0 | 0.00 | 0.00 | 0.00 | 54 | 1008.3 |
| 20260509232510 | 23 | 262 | 0.0 | 0.0 | 0.00 | 0.00 | 0.00 | 53 | 1008.3 |
| 20260509232014 | 23 | 262 | 0.0 | 0.0 | 0.00 | 0.00 | 0.00 | 52 | 1008.2 |
| 20260509231010 | 23 | 262 | 0.0 | 0.0 | 0.00 | 0.00 | 0.00 | 45 | 1008.2 |
| 20260509230505 | 23 | 262 | 0.0 | 0.0 | 0.00 | 0.00 | 0.00 | 44 | 1008.2 |
| 20260509225507 | 23 | 309 | 0.0 | 3.2 | 0.00 | 0.00 | 0.00 | 46 | 1008.2 |
| 20260509225006 | 22 | 292 | 0.0 | 8.0 | 0.00 | 0.00 | 0.00 | 46 | 1008.2 |
| 20260509224003 | 22 | 271 | 1.6 | 8.0 | 0.00 | 0.00 | 0.00 | 46 | 1008.4 |
| 20260509223504 | 23 | 308 | 3.2 | 8.0 | 0.00 | 0.00 | 0.00 | 47 | 1008.3 |
| 20260509223007 | 22 | 289 | 0.0 | 4.8 | 0.00 | 0.00 | 0.00 | 47 | 1008.3 |
| 20260509222504 | 22 | 246 | 0.0 | 4.8 | 0.00 | 0.00 | 0.00 | 46 | 1008.3 |
| 20260509222007 | 22 | 261 | 1.6 | 4.8 | 0.00 | 0.00 | 0.00 | 46 | 1008.3 |
| 20260509221508 | 22 | 286 | 1.6 | 4.8 | 0.00 | 0.00 | 0.00 | 47 | 1008.3 |
| 20260509221005 | 22 | 253 | 1.6 | 6.4 | 0.00 | 0.00 | 0.00 | 45 | 1008.3 |
| 20260509220508 | 23 | 273 | 3.2 | 6.4 | 0.00 | 0.00 | 0.00 | 46 | 1008.4 |
| 20260509220011 | 23 | 278 | 0.0 | 6.4 | 0.00 | 0.00 | 0.00 | 45 | 1008.3 |
| 20260509215510 | 22 | 277 | 1.6 | 6.4 | 0.00 | 0.00 | 0.00 | 47 | 1008.3 |
| 20260509215008 | 22 | 306 | 1.6 | 3.2 | 0.00 | 0.00 | 0.00 | 47 | 1008.3 |
| 20260509214512 | 22 | 271 | 0.0 | 6.4 | 0.00 | 0.00 | 0.00 | 47 | 1008.3 |
| 20260509214008 | 22 | 207 | 0.0 | 8.0 | 0.00 | 0.00 | 0.00 | 46 | 1008.3 |
| 20260509212503 | 22 | 268 | 3.2 | 6.4 | 0.00 | 0.00 | 0.00 | 46 | 1008.3 |
| 20260509212008 | 22 | 276 | 4.8 | 11.3 | 0.00 | 0.00 | 0.00 | 46 | 1008.3 |
| 20260509211507 | 22 | 277 | 1.6 | 11.3 | 0.00 | 0.00 | 0.00 | 46 | 1008.3 |
| 20260509211005 | 23 | 265 | 1.6 | 17.7 | 0.00 | 0.00 | 0.00 | 45 | 1008.3 |
| 20260509210508 | 23 | 268 | 3.2 | 17.7 | 0.00 | 0.00 | 0.00 | 44 | 1008.3 |
| 20260509210016 | 23 | 271 | 6.4 | 12.9 | 0.00 | 0.00 | 0.00 | 45 | 1008.2 |
| 20260509205507 | 23 | 242 | 4.8 | 12.9 | 0.00 | 0.00 | 0.00 | 42 | 1008.2 |
| 20260509205005 | 24 | 211 | 1.6 | 11.3 | 0.00 | 0.00 | 0.00 | 45 | 1008.2 |
| 20260509204514 | 23 | 282 | 4.8 | 19.3 | 0.00 | 0.00 | 0.00 | 45 | 1008.3 |
| 20260509204008 | 23 | 256 | 4.8 | 19.3 | 0.00 | 0.00 | 0.00 | 44 | 1008.3 |
| 20260509203506 | 23 | 229 | 4.8 | 12.9 | 0.00 | 0.00 | 0.00 | 44 | 1008.4 |
| 20260509203019 | 23 | 274 | 1.6 | 16.1 | 0.00 | 0.00 | 0.00 | 44 | 1008.3 |
| 20260509201508 | 23 | 257 | 4.8 | 14.5 | 0.00 | 0.00 | 0.00 | 48 | 1008.3 |
| 20260509201005 | 22 | 208 | 4.8 | 12.9 | 0.00 | 0.00 | 0.00 | 47 | 1008.3 |
| 20260509200504 | 23 | 159 | 3.2 | 16.1 | 0.00 | 0.00 | 0.00 | 46 | 1008.3 |
| 20260509200006 | 22 | 221 | 3.2 | 17.7 | 0.00 | 0.00 | 0.00 | 48 | 1008.4 |
| 20260509195508 | 22 | 210 | 4.8 | 17.7 | 0.00 | 0.00 | 0.00 | 47 | 1008.4 |
| 20260509195004 | 22 | 215 | 4.8 | 16.1 | 0.00 | 0.00 | 0.00 | 47 | 1008.5 |
| 20260509194515 | 22 | 265 | 1.6 | 12.9 | 0.00 | 0.00 | 0.00 | 48 | 1008.7 |
| 20260509194012 | 22 | 167 | 4.8 | 19.3 | 0.00 | 0.00 | 0.00 | 48 | 1008.6 |
| 20260509193513 | 22 | 202 | 4.8 | 19.3 | 0.00 | 0.00 | 0.00 | 48 | 1008.8 |
| 20260509193020 | 22 | 186 | 4.8 | 14.5 | 0.00 | 0.00 | 0.00 | 48 | 1008.8 |
| 20260509192508 | 22 | 240 | 0.0 | 11.3 | 0.00 | 0.00 | 0.00 | 49 | 1008.8 |
| 20260509192011 | 22 | 333 | 3.2 | 12.9 | 0.00 | 0.00 | 0.00 | 50 | 1008.8 |
| 20260509191007 | 22 | 228 | 3.2 | 12.9 | 0.00 | 0.00 | 0.00 | 49 | 1009.1 |
| 20260509190014 | 21 | 248 | 8.0 | 14.5 | 0.00 | 0.00 | 0.00 | 49 | 1009.3 |
| 20260509185508 | 21 | 228 | 3.2 | 14.5 | 0.00 | 0.00 | 0.00 | 49 | 1009.3 |
| 20260509185004 | 21 | 101 | 3.2 | 14.5 | 0.00 | 0.00 | 0.00 | 51 | 1009.3 |
| 20260509184508 | 21 | 210 | 6.4 | 14.5 | 0.00 | 0.00 | 0.00 | 50 | 1009.4 |
| 20260509184006 | 21 | 140 | 0.0 | 8.0 | 0.00 | 0.00 | 0.00 | 49 | 1009.3 |
| 20260509183506 | 22 | 164 | 3.2 | 11.3 | 0.00 | 0.00 | 0.00 | 49 | 1009.1 |
| 20260509183014 | 21 | 274 | 1.6 | 11.3 | 0.00 | 0.00 | 0.00 | 51 | 1009.3 |
| 20260509182506 | 21 | 189 | 1.6 | 6.4 | 0.00 | 0.00 | 0.00 | 53 | 1009.6 |
| 20260509182008 | 20 | 21 | 1.6 | 6.4 | 0.00 | 0.00 | 0.00 | 51 | 1009.6 |
| 20260509181520 | 21 | 50 | 0.0 | 6.4 | 0.00 | 0.00 | 0.00 | 50 | 1009.7 |
| 20260509181013 | 21 | 198 | 0.0 | 4.8 | 0.00 | 0.00 | 0.00 | 51 | 1009.9 |
| 20260509180508 | 20 | 278 | 0.0 | 4.8 | 0.00 | 0.00 | 0.00 | 52 | 1009.7 |
| 20260509175003 | 20 | 292 | 0.0 | 6.4 | 0.00 | 0.00 | 0.00 | 53 | 1010.2 |
| 20260509174514 | 20 | 291 | 1.6 | 6.4 | 0.00 | 0.00 | 0.00 | 50 | 1010.4 |
| 20260509174010 | 20 | 310 | 0.0 | 3.2 | 0.00 | 0.00 | 0.00 | 50 | 1010.4 |
| 20260509173506 | 20 | 279 | 0.0 | 3.2 | 0.00 | 0.00 | 0.00 | 51 | 1010.4 |
| 20260509173014 | 20 | 258 | 1.6 | 4.8 | 0.00 | 0.00 | 0.00 | 51 | 1010.4 |
| 20260509172507 | 20 | 84 | 0.0 | 4.8 | 0.00 | 0.00 | 0.00 | 52 | 1010.4 |
| 20260509172008 | 21 | 240 | 0.0 | 3.2 | 0.00 | 0.00 | 0.00 | 50 | 1010.5 |
| 20260509171526 | 20 | 147 | 0.0 | 6.4 | 0.00 | 0.00 | 0.00 | 50 | 1010.7 |
| 20260509171008 | 21 | 340 | 3.2 | 8.0 | 0.00 | 0.00 | 0.00 | 49 | 1010.7 |
| 20260509170509 | 20 | 272 | 1.6 | 8.0 | 0.00 | 0.00 | 0.00 | 50 | 1010.7 |
| 20260509170024 | 20 | 279 | 0.0 | 4.8 | 0.00 | 0.00 | 0.00 | 50 | 1010.7 |
| 20260509165011 | 20 | 238 | 0.0 | 9.7 | 0.00 | 0.00 | 0.00 | 53 | 1010.7 |
| 20260509163506 | 19 | 288 | 3.2 | 9.7 | 0.00 | 0.00 | 0.00 | 53 | 1010.7 |
| 20260509163015 | 20 | 265 | 1.6 | 6.4 | 0.00 | 0.00 | 0.00 | 50 | 1010.7 |
| 20260509162507 | 19 | 227 | 3.2 | 6.4 | 0.00 | 0.00 | 0.00 | 51 | 1010.7 |
| 20260509162006 | 20 | 271 | 3.2 | 4.8 | 0.00 | 0.00 | 0.00 | 48 | 1010.8 |
| 20260509161517 | 19 | 89 | 0.0 | 4.8 | 0.00 | 0.00 | 0.00 | 51 | 1010.7 |
| 20260509161007 | 19 | 144 | 0.0 | 8.0 | 0.00 | 0.00 | 0.00 | 51 | 1010.7 |
| 20260509160508 | 19 | 204 | 0.0 | 9.7 | 0.00 | 0.00 | 0.00 | 51 | 1010.9 |
| 20260509160022 | 18 | 184 | 4.8 | 9.7 | 0.00 | 0.00 | 0.00 | 50 | 1011.0 |
| 20260509155505 | 19 | 263 | 0.0 | 6.4 | 0.00 | 0.00 | 0.00 | 50 | 1010.9 |
| 20260509155011 | 18 | 265 | 3.2 | 6.4 | 0.00 | 0.00 | 0.00 | 50 | 1010.9 |
| 20260509154524 | 19 | 239 | 0.0 | 4.8 | 0.00 | 0.00 | 0.00 | 51 | 1010.9 |
| 20260509153506 | 18 | 157 | 0.0 | 9.7 | 0.00 | 0.00 | 0.00 | 50 | 1010.9 |
| 20260509152504 | 18 | 298 | 0.0 | 6.4 | 0.00 | 0.00 | 0.00 | 51 | 1011.0 |
| 20260509152006 | 18 | 242 | 1.6 | 6.4 | 0.00 | 0.00 | 0.00 | 51 | 1011.1 |
| 20260509151518 | 18 | 171 | 1.6 | 6.4 | 0.00 | 0.00 | 0.00 | 49 | 1011.1 |
| 20260509151006 | 18 | 331 | 1.6 | 12.9 | 0.00 | 0.00 | 0.00 | 50 | 1011.0 |
| 20260509150507 | 18 | 248 | 1.6 | 12.9 | 0.00 | 0.00 | 0.00 | 51 | 1011.2 |
| 20260509150020 | 18 | 200 | 1.6 | 4.8 | 0.00 | 0.00 | 0.00 | 50 | 1011.2 |
| 20260509145508 | 18 | 158 | 0.0 | 4.8 | 0.00 | 0.00 | 0.00 | 50 | 1011.3 |
| 20260509145008 | 17 | 72 | 1.6 | 11.3 | 0.00 | 0.00 | 0.00 | 52 | 1011.4 |
| 20260509144522 | 17 | 187 | 1.6 | 11.3 | 0.00 | 0.00 | 0.00 | 52 | 1011.4 |
| 20260509143515 | 17 | 155 | 6.4 | 14.5 | 0.00 | 0.00 | 0.00 | 53 | 1011.5 |
| 20260509143027 | 16 | 209 | 6.4 | 14.5 | 0.00 | 0.00 | 0.00 | 54 | 1011.6 |
| 20260509141008 | 16 | 94 | 4.8 | 8.0 | 0.00 | 0.00 | 0.00 | 55 | 1011.7 |
| 20260509140506 | 16 | 239 | 1.6 | 12.9 | 0.00 | 0.00 | 0.00 | 57 | 1011.7 |
| 20260509140019 | 15 | 259 | 3.2 | 14.5 | 0.00 | 0.00 | 0.00 | 57 | 1011.7 |
| 20260509135503 | 15 | 242 | 8.0 | 14.5 | 0.00 | 0.00 | 0.00 | 56 | 1011.6 |
| 20260509135004 | 15 | 212 | 3.2 | 9.7 | 0.00 | 0.00 | 0.00 | 57 | 1011.5 |
| 20260509134504 | 15 | 238 | 3.2 | 9.7 | 0.00 | 0.00 | 0.00 | 57 | 1011.4 |
| 20260509134006 | 15 | 261 | 3.2 | 9.7 | 0.00 | 0.00 | 0.00 | 57 | 1011.5 |
| 20260509133504 | 15 | 250 | 4.8 | 11.3 | 0.00 | 0.00 | 0.00 | 57 | 1011.5 |
| 20260509133005 | 15 | 215 | 4.8 | 11.3 | 0.00 | 0.00 | 0.00 | 56 | 1011.6 |
| 20260509132503 | 15 | 246 | 3.2 | 12.9 | 0.00 | 0.00 | 0.00 | 56 | 1011.6 |
| 20260509132007 | 15 | 166 | 1.6 | 12.9 | 0.00 | 0.00 | 0.00 | 57 | 1011.7 |
| 20260509131517 | 14 | 202 | 6.4 | 16.1 | 0.00 | 0.00 | 0.00 | 56 | 1011.7 |
| 20260509131008 | 15 | 184 | 6.4 | 16.1 | 0.00 | 0.00 | 0.00 | 56 | 1011.6 |
| 20260509130509 | 15 | 237 | 3.2 | 16.1 | 0.00 | 0.00 | 0.00 | 57 | 1011.6 |
| 20260509130016 | 14 | 300 | 4.8 | 16.1 | 0.00 | 0.00 | 0.00 | 57 | 1011.6 |
| 20260509125514 | 14 | 238 | 3.2 | 11.3 | 0.00 | 0.00 | 0.00 | 57 | 1011.6 |
| 20260509125008 | 14 | 196 | 3.2 | 11.3 | 0.00 | 0.00 | 0.00 | 58 | 1011.7 |
| 20260509124519 | 14 | 255 | 3.2 | 9.7 | 0.00 | 0.00 | 0.00 | 58 | 1011.8 |
| 20260509124003 | 14 | 179 | 1.6 | 9.7 | 0.00 | 0.00 | 0.00 | 58 | 1011.7 |
| 20260509123504 | 14 | 189 | 3.2 | 9.7 | 0.00 | 0.00 | 0.00 | 58 | 1011.7 |
| 20260509123006 | 15 | 201 | 1.6 | 8.0 | 0.00 | 0.00 | 0.00 | 58 | 1011.7 |
| 20260509122504 | 14 | 233 | 3.2 | 9.7 | 0.00 | 0.00 | 0.00 | 58 | 1011.7 |
| 20260509122006 | 14 | 186 | 0.0 | 9.7 | 0.00 | 0.00 | 0.00 | 56 | 1011.7 |
| 20260509121517 | 14 | 242 | 3.2 | 8.0 | 0.00 | 0.00 | 0.00 | 56 | 1011.6 |
| 20260509121004 | 14 | 209 | 1.6 | 8.0 | 0.00 | 0.00 | 0.00 | 56 | 1011.7 |
| 20260509120508 | 14 | 309 | 1.6 | 9.7 | 0.00 | 0.00 | 0.00 | 56 | 1011.7 |
| 20260509120014 | 14 | 270 | 4.8 | 11.3 | 0.00 | 0.00 | 0.00 | 55 | 1011.5 |
| 20260509115505 | 14 | 259 | 3.2 | 19.3 | 0.00 | 0.00 | 0.00 | 55 | 1011.4 |
| 20260509115007 | 14 | 150 | 3.2 | 19.3 | 0.00 | 0.00 | 0.00 | 55 | 1011.3 |
| 20260509114519 | 14 | 189 | 4.8 | 14.5 | 0.00 | 0.00 | 0.00 | 55 | 1011.3 |
| 20260509114010 | 14 | 192 | 4.8 | 14.5 | 0.00 | 0.00 | 0.00 | 56 | 1011.3 |
| 20260509113512 | 14 | 170 | 1.6 | 14.5 | 0.00 | 0.00 | 0.00 | 56 | 1011.3 |
| 20260509113021 | 13 | 216 | 3.2 | 14.5 | 0.00 | 0.00 | 0.00 | 57 | 1011.2 |
| 20260509112504 | 13 | 194 | 3.2 | 8.0 | 0.00 | 0.00 | 0.00 | 57 | 1011.1 |
| 20260509112004 | 13 | 187 | 1.6 | 9.7 | 0.00 | 0.00 | 0.00 | 57 | 1011.0 |
| 20260509111511 | 13 | 174 | 1.6 | 9.7 | 0.00 | 0.00 | 0.00 | 57 | 1011.0 |
| 20260509111006 | 13 | 188 | 3.2 | 12.9 | 0.00 | 0.00 | 0.00 | 56 | 1011.0 |
| 20260509110505 | 13 | 213 | 1.6 | 12.9 | 0.00 | 0.00 | 0.00 | 56 | 1011.0 |
| 20260509110013 | 14 | 173 | 0.0 | 6.4 | 0.00 | 0.00 | 0.00 | 57 | 1010.9 |
| 20260509105505 | 13 | 222 | 1.6 | 9.7 | 0.00 | 0.00 | 0.00 | 60 | 1010.9 |
| 20260509105010 | 13 | 192 | 3.2 | 9.7 | 0.00 | 0.00 | 0.00 | 57 | 1010.8 |
| 20260509104530 | 13 | 266 | 1.6 | 8.0 | 0.00 | 0.00 | 0.00 | 56 | 1010.8 |
| 20260509104011 | 13 | 245 | 3.2 | 8.0 | 0.00 | 0.00 | 0.00 | 56 | 1010.8 |
| 20260509103508 | 13 | 189 | 3.2 | 6.4 | 0.00 | 0.00 | 0.00 | 56 | 1010.6 |
| 20260509103021 | 13 | 209 | 1.6 | 6.4 | 0.00 | 0.00 | 0.00 | 56 | 1010.5 |
| 20260509102511 | 13 | 209 | 1.6 | 8.0 | 0.00 | 0.00 | 0.00 | 57 | 1010.6 |
| 20260509102011 | 13 | 239 | 1.6 | 8.0 | 0.00 | 0.00 | 0.00 | 56 | 1010.5 |
| 20260509101528 | 13 | 224 | 0.0 | 6.4 | 0.00 | 0.00 | 0.00 | 56 | 1010.5 |
| 20260509101005 | 13 | 157 | 0.0 | 8.0 | 0.00 | 0.00 | 0.00 | 56 | 1010.5 |
| 20260509100503 | 13 | 172 | 1.6 | 9.7 | 0.00 | 0.00 | 0.00 | 56 | 1010.7 |
| 20260509100024 | 13 | 229 | 4.8 | 9.7 | 0.00 | 0.00 | 0.00 | 56 | 1010.7 |
| 20260509095506 | 13 | 196 | 3.2 | 9.7 | 0.00 | 0.00 | 0.00 | 56 | 1010.7 |
| 20260509095008 | 13 | 210 | 3.2 | 9.7 | 0.00 | 0.00 | 0.00 | 56 | 1010.7 |
| 20260509094521 | 13 | 217 | 3.2 | 9.7 | 0.00 | 0.00 | 0.00 | 55 | 1010.6 |
| 20260509094006 | 13 | 215 | 4.8 | 11.3 | 0.00 | 0.00 | 0.00 | 55 | 1010.7 |
| 20260509093510 | 13 | 227 | 3.2 | 12.9 | 0.00 | 0.00 | 0.00 | 55 | 1010.7 |
| 20260509093022 | 13 | 228 | 6.4 | 14.5 | 0.00 | 0.00 | 0.00 | 55 | 1010.8 |
| 20260509092507 | 13 | 227 | 3.2 | 14.5 | 0.00 | 0.00 | 0.00 | 55 | 1010.8 |
| 20260509092008 | 13 | 177 | 1.6 | 9.7 | 0.00 | 0.00 | 0.00 | 55 | 1010.9 |
| 20260509091525 | 13 | 267 | 3.2 | 9.7 | 0.00 | 0.00 | 0.00 | 54 | 1010.9 |
| 20260509091009 | 13 | 224 | 3.2 | 12.9 | 0.00 | 0.00 | 0.00 | 54 | 1010.9 |
| 20260509090510 | 13 | 207 | 3.2 | 12.9 | 0.00 | 0.00 | 0.00 | 54 | 1011.0 |
| 20260509090028 | 13 | 248 | 1.6 | 8.0 | 0.00 | 0.00 | 0.00 | 54 | 1011.0 |
| 20260509085503 | 13 | 210 | 3.2 | 11.3 | 0.00 | 0.00 | 0.00 | 54 | 1011.0 |
| 20260509085008 | 13 | 223 | 6.4 | 12.9 | 0.00 | 0.00 | 0.00 | 53 | 1011.0 |
| 20260509084007 | 13 | 267 | 1.6 | 16.1 | 0.00 | 0.00 | 0.00 | 53 | 1011.0 |
| 20260509083506 | 13 | 188 | 4.8 | 16.1 | 0.00 | 0.00 | 0.00 | 52 | 1011.0 |
| 20260509083019 | 14 | 264 | 4.8 | 17.7 | 0.00 | 0.00 | 0.00 | 52 | 1011.1 |
| 20260509082516 | 14 | 169 | 4.8 | 17.7 | 0.00 | 0.00 | 0.00 | 52 | 1011.1 |
| 20260509082010 | 14 | 190 | 3.2 | 17.7 | 0.00 | 0.00 | 0.00 | 52 | 1011.1 |
| 20260509081536 | 14 | 211 | 6.4 | 22.5 | 0.00 | 0.00 | 0.00 | 51 | 1011.2 |
| 20260509080509 | 14 | 282 | 3.2 | 12.9 | 0.00 | 0.00 | 0.00 | 52 | 1011.3 |
| 20260509080025 | 14 | 269 | 1.6 | 12.9 | 0.00 | 0.00 | 0.00 | 51 | 1011.4 |
| 20260509074004 | 14 | 201 | 3.2 | 12.9 | 0.00 | 0.00 | 0.00 | 52 | 1011.3 |
| 20260509073506 | 14 | 182 | 3.2 | 12.9 | 0.00 | 0.00 | 0.00 | 52 | 1011.3 |
| 20260509072011 | 14 | 170 | 3.2 | 12.9 | 0.00 | 0.00 | 0.00 | 52 | 1011.3 |
| 20260509071010 | 14 | 169 | 3.2 | 14.5 | 0.00 | 0.00 | 0.00 | 51 | 1011.3 |
| 20260509065515 | 14 | 207 | 4.8 | 16.1 | 0.00 | 0.00 | 0.00 | 51 | 1011.3 |
| 20260509063011 | 14 | 197 | 3.2 | 14.5 | 0.00 | 0.00 | 0.00 | 51 | 1011.5 |
| 20260509062510 | 15 | 221 | 4.8 | 14.5 | 0.00 | 0.00 | 0.00 | 50 | 1011.5 |
| 20260509062009 | 15 | 161 | 3.2 | 14.5 | 0.00 | 0.00 | 0.00 | 50 | 1011.5 |
| 20260509061520 | 15 | 194 | 4.8 | 14.5 | 0.00 | 0.00 | 0.00 | 50 | 1011.5 |
| 20260509061007 | 15 | 161 | 3.2 | 14.5 | 0.00 | 0.00 | 0.00 | 50 | 1011.5 |
| 20260509060507 | 15 | 179 | 3.2 | 9.7 | 0.00 | 0.00 | 0.00 | 50 | 1011.6 |
| 20260509060021 | 15 | 157 | 3.2 | 9.7 | 0.00 | 0.00 | 0.00 | 49 | 1011.6 |
| 20260509055510 | 15 | 227 | 3.2 | 11.3 | 0.00 | 0.00 | 0.00 | 49 | 1011.6 |
| 20260509055015 | 15 | 251 | 3.2 | 11.3 | 0.00 | 0.00 | 0.00 | 50 | 1011.7 |
| 20260509054526 | 15 | 228 | 4.8 | 14.5 | 0.00 | 0.00 | 0.00 | 49 | 1011.7 |
| 20260509054009 | 15 | 211 | 3.2 | 14.5 | 0.00 | 0.00 | 0.00 | 50 | 1011.7 |
| 20260509053510 | 15 | 161 | 4.8 | 12.9 | 0.00 | 0.00 | 0.00 | 49 | 1011.6 |
| 20260509053029 | 15 | 190 | 3.2 | 12.9 | 0.00 | 0.00 | 0.00 | 49 | 1011.6 |
| 20260509052510 | 15 | 194 | 4.8 | 12.9 | 0.00 | 0.00 | 0.00 | 49 | 1011.7 |
| 20260509052011 | 15 | 177 | 6.4 | 17.7 | 0.00 | 0.00 | 0.00 | 49 | 1011.6 |
| 20260509051012 | 15 | 233 | 4.8 | 14.5 | 0.00 | 0.00 | 0.00 | 48 | 1011.8 |
| 20260509050509 | 15 | 245 | 4.8 | 12.9 | 0.00 | 0.00 | 0.00 | 48 | 1011.8 |
| 20260509050028 | 15 | 209 | 4.8 | 11.3 | 0.00 | 0.00 | 0.00 | 48 | 1011.8 |